Vilalleons





Hora UTC 17:00
Temperatura 4.0 ºC
Humedad 78.0 %
Presión 1033.5 hPa
Pluja 0.2 mm
Velocidad viento 3.2 km/h
Dirección viento N

Datos diarios 2022-01-25



Hora UTC (invierno +1h; verano +2h)
Temperatura (ºC) Humedad (%) Presión (hPa) Velocidad viento (km/h) Precipitación (mm)
Hora UTC Aire Humedad Presión Vel. Dir. Vel. Max Dir. Intent. máx 5 min.
00:05 -1.6 95.0 1034.1 3.2 SE 3.2 0.0
00:10 -1.7 94.0 1034.1 3.2 SE 3.2 0.0
00:15 -1.8 94.0 1034.1 1.6 SE 3.2 0.0
00:20 -1.8 94.0 1034.1 1.6 SE 3.2 0.0
00:25 -1.8 95.0 1034.1 1.6 SE 3.2 0.0
00:30 -1.9 94.0 1034.1 1.6 SE 3.2 0.0
00:35 -1.9 94.0 1034.1 3.2 SE 3.2 0.0
00:40 -2.1 94.0 1034.2 1.6 SE 4.8 0.0
00:45 -2.1 95.0 1034.2 3.2 SE 3.2 0.0
00:50 -2.0 95.0 1034.2 3.2 SE 3.2 0.0
00:55 -2.0 95.0 1034.0 1.6 SE 3.2 0.0
01:00 -2.0 95.0 1034.2 1.6 SE 3.2 0.0
01:05 -1.9 95.0 1034.2 3.2 SE 3.2 0.0
01:10 -1.9 95.0 1034.2 1.6 SE 3.2 0.0
01:15 -1.9 95.0 1034.2 1.6 SE 3.2 0.0
01:20 -2.1 95.0 1034.1 1.6 SE 3.2 0.0
01:25 -2.2 94.0 1034.1 3.2 SE 4.8 0.0
01:30 -2.2 95.0 1034.2 1.6 SE 4.8 0.0
01:35 -2.2 95.0 1034.3 1.6 SE 3.2 0.0
01:40 -2.3 95.0 1034.4 1.6 SE 3.2 0.0
01:45 -2.3 95.0 1034.4 1.6 SE 3.2 0.0
01:50 -2.3 95.0 1034.4 1.6 SE 3.2 0.0
01:55 -2.3 95.0 1034.5 1.6 SE 3.2 0.0
02:00 -2.3 95.0 1034.5 1.6 SE 3.2 0.0
02:05 -2.3 95.0 1034.4 1.6 SE 3.2 0.0
02:10 -2.3 95.0 1034.5 1.6 SE 3.2 0.0
02:15 -2.3 95.0 1034.5 0.0 SE 3.2 0.0
02:20 -2.3 95.0 1034.4 0.0 SE 3.2 0.0
02:25 -2.4 94.0 1034.4 1.6 SE 3.2 0.0
02:30 -2.6 94.0 1034.4 3.2 SE 3.2 0.0
02:35 -2.6 95.0 1034.3 1.6 SE 3.2 0.0
02:40 -2.6 95.0 1034.4 3.2 SE 3.2 0.0
02:45 -2.6 95.0 1034.3 0.0 SE 3.2 0.0
02:50 -2.6 95.0 1034.3 1.6 SE 3.2 0.0
02:55 -2.6 95.0 1034.2 1.6 SE 3.2 0.0
03:00 -2.6 95.0 1034.3 1.6 SE 3.2 0.0
03:05 -2.6 95.0 1034.2 3.2 SE 3.2 0.0
03:10 -2.7 95.0 1034.3 3.2 SE 4.8 0.0
03:15 -2.8 95.0 1034.2 3.2 SE 4.8 0.0
03:20 -2.8 95.0 1034.3 4.8 SE 4.8 0.0
03:25 -2.8 95.0 1034.2 3.2 SE 4.8 0.0
03:30 -2.8 95.0 1034.1 3.2 SE 4.8 0.0
03:30 -2.9 95.0 1034.0 3.2 SE 4.8 0.0
03:40 -2.9 95.0 1034.1 1.6 SE 4.8 0.0
03:45 -3.0 94.0 1034.1 1.6 SE 4.8 0.0
03:50 -3.1 94.0 1034.1 1.6 SE 4.8 0.0
03:55 -3.0 95.0 1034.1 1.6 SE 3.2 0.0
04:00 -2.9 95.0 1034.1 1.6 SE 3.2 0.0
04:05 -3.1 94.0 1034.1 1.6 SE 3.2 0.0
04:10 -3.1 95.0 1034.0 1.6 SE 3.2 0.0
04:15 -3.1 95.0 1034.0 1.6 SE 3.2 0.0
04:20 -3.1 95.0 1034.0 1.6 SE 3.2 0.0
04:25 -3.1 95.0 1033.9 1.6 SE 3.2 0.0
04:30 -3.2 94.0 1033.9 1.6 SE 3.2 0.0
04:35 -3.2 95.0 1034.0 3.2 SE 3.2 0.0
04:40 -3.3 95.0 1034.0 1.6 SE 3.2 0.0
04:45 -3.3 95.0 1034.0 0.0 SE 3.2 0.0
04:50 -3.2 95.0 1034.1 1.6 SE 3.2 0.0
04:55 -3.2 95.0 1034.0 1.6 SE 3.2 0.0
05:00 -3.3 94.0 1034.0 1.6 SE 3.2 0.0
05:05 -3.4 94.0 1034.0 1.6 SE 3.2 0.0
05:10 -3.4 95.0 1033.9 1.6 SE 3.2 0.0
05:15 -3.4 95.0 1033.9 1.6 SE 3.2 0.0
05:20 -3.4 94.0 1034.1 1.6 SE 3.2 0.0
05:25 -3.6 94.0 1034.1 1.6 SE 3.2 0.0
05:30 -3.5 95.0 1034.0 1.6 SE 3.2 0.0
05:35 -3.6 95.0 1034.3 1.6 SE 3.2 0.0
05:40 -3.4 95.0 1034.2 1.6 SE 3.2 0.0
05:45 -3.4 95.0 1034.4 1.6 SE 3.2 0.0
05:50 -3.4 95.0 1034.4 0.0 SE 3.2 0.0
05:55 -3.4 95.0 1034.4 0.0 SE 1.6 0.0
06:00 -3.6 94.0 1034.4 1.6 SE 1.6 0.0
06:05 -3.6 94.0 1034.6 0.0 SE 1.6 0.0
06:10 -3.7 94.0 1034.5 3.2 SE 4.8 0.0
06:15 -3.8 94.0 1034.6 1.6 SE 4.8 0.0
06:20 -3.8 95.0 1034.7 1.6 SE 3.2 0.0
06:25 -3.8 95.0 1034.6 3.2 SE 3.2 0.0
06:30 -3.8 95.0 1034.6 1.6 SE 3.2 0.0
06:35 -3.8 95.0 1034.7 1.6 SE 3.2 0.0
06:40 -3.7 95.0 1034.8 1.6 SE 3.2 0.0
06:45 -3.7 95.0 1034.7 1.6 SE 3.2 0.0
06:50 -3.7 95.0 1034.7 3.2 SE 3.2 0.0
06:55 -3.6 95.0 1034.9 0.0 SE 3.2 0.0
07:00 -3.7 95.0 1034.9 3.2 SE 3.2 0.0
07:05 -3.7 95.0 1034.9 1.6 SE 3.2 0.0
07:10 -3.7 95.0 1034.8 1.6 SE 3.2 0.0
07:15 -3.8 95.0 1034.9 1.6 SE 3.2 0.0
07:20 -3.8 95.0 1034.8 1.6 SE 3.2 0.0
07:25 -3.8 95.0 1034.9 0.0 SE 3.2 0.0
07:30 -3.8 95.0 1035.1 1.6 SE 3.2 0.0
07:35 -3.8 95.0 1035.0 1.6 SE 3.2 0.0
07:40 -3.8 95.0 1034.9 1.6 SE 3.2 0.0
07:45 -3.9 94.0 1035.1 1.6 SE 3.2 0.0
07:50 -3.9 95.0 1035.2 1.6 SE 3.2 0.0
07:55 -3.8 95.0 1035.2 1.6 SE 3.2 0.0
08:00 -3.4 96.0 1035.1 1.6 SE 3.2 0.0
08:05 -3.1 96.0 1035.1 1.6 SE 3.2 0.0
08:10 -2.7 97.0 1034.9 1.6 SE 3.2 0.0
08:20 -2.2 97.0 1034.9 3.2 SE 4.8 0.0
08:25 -2.0 96.0 1035.1 1.6 SE 4.8 0.0
08:30 -1.8 97.0 1035.0 1.6 SE 3.2 0.0
08:35 -1.5 97.0 1035.0 1.6 SE 3.2 0.0
08:40 -1.2 97.0 1035.1 0.0 N 3.2 0.0
08:45 -0.8 97.0 1035.1 1.6 SE 3.2 0.0
08:50 -0.4 97.0 1035.0 0.0 SE 3.2 0.0
08:55 -0.1 97.0 1034.9 0.0 N 1.6 0.0
09:00 0.2 97.0 1035.2 0.0 N 1.6 0.0
09:05 0.4 97.0 1035.3 1.6 SE 1.6 0.0
09:10 0.6 97.0 1035.2 0.0 SE 1.6 0.0
09:15 0.5 95.0 1035.4 0.0 SE 1.6 0.2
09:20 0.5 95.0 1035.4 0.0 SE 1.6 0.0
09:25 0.6 95.0 1035.5 3.2 N 3.2 0.0
09:30 0.6 94.0 1035.3 1.6 N 3.2 0.0
09:35 0.7 95.0 1035.5 0.0 N 3.2 0.0
09:40 0.9 95.0 1035.5 1.6 SE 1.6 0.0
09:45 1.1 94.0 1035.5 3.2 N 4.8 0.0
09:50 1.2 92.0 1035.5 1.6 N 4.8 0.0
09:55 1.4 92.0 1035.5 0.0 NW 3.2 0.0
10:00 1.6 91.0 1035.4 1.6 N 4.8 0.0
10:05 1.7 91.0 1035.5 0.0 N 4.8 0.0
10:10 1.9 90.0 1035.6 3.2 N 3.2 0.0
10:15 2.1 88.0 1035.6 1.6 NW 3.2 0.0
10:20 2.4 87.0 1035.6 4.8 NW 4.8 0.0
10:25 2.6 85.0 1035.6 1.6 NNW 4.8 0.0
10:30 2.8 85.0 1035.5 3.2 NNW 4.8 0.0
10:35 3.1 84.0 1035.5 1.6 NW 4.8 0.0
10:40 3.4 83.0 1035.4 3.2 NW 3.2 0.0
10:45 3.7 82.0 1035.4 1.6 NW 4.8 0.0
10:50 3.9 81.0 1035.2 1.6 NW 4.8 0.0
10:55 4.3 81.0 1035.1 1.6 NW 4.8 0.0
11:00 4.7 79.0 1035.0 1.6 NW 4.8 0.0
11:05 4.9 78.0 1035.2 4.8 NW 4.8 0.0
11:10 5.2 78.0 1035.1 1.6 NW 8.0 0.0
11:15 5.5 77.0 1035.2 1.6 NNW 8.0 0.0
11:20 5.6 76.0 1035.1 1.6 NNW 4.8 0.0
11:25 5.9 76.0 1034.9 1.6 NW 4.8 0.0
11:30 6.2 75.0 1034.9 3.2 NW 4.8 0.0
11:35 6.3 74.0 1034.9 1.6 NNW 4.8 0.0
11:40 6.6 73.0 1035.1 3.2 NW 4.8 0.0
11:45 6.7 72.0 1034.9 3.2 NW 6.4 0.0
11:50 6.9 72.0 1034.8 1.6 NW 4.8 0.0
11:55 7.2 70.0 1035.0 1.6 WNW 4.8 0.0
12:00 7.4 69.0 1034.9 1.6 NW 4.8 0.0
12:05 7.8 70.0 1035.0 1.6 WNW 4.8 0.0
12:10 8.2 66.0 1035.1 1.6 WNW 4.8 0.0
12:15 8.4 66.0 1035.3 3.2 NW 6.4 0.0
12:20 8.7 65.0 1035.3 1.6 NW 6.4 0.0
12:25 8.9 64.0 1035.3 3.2 WNW 6.4 0.0
12:30 9.2 63.0 1035.2 3.2 WNW 6.4 0.0
12:35 9.4 63.0 1035.2 3.2 NNW 6.4 0.0
12:40 9.7 60.0 1034.9 4.8 NW 6.4 0.0
12:45 9.9 59.0 1034.9 1.6 NNW 6.4 0.0
12:50 10.2 58.0 1034.9 1.6 WSW 6.4 0.0
12:55 10.4 57.0 1034.5 4.8 W 6.4 0.0
13:00 10.7 55.0 1034.3 1.6 WNW 6.4 0.0
13:05 10.8 54.0 1034.3 3.2 NW 6.4 0.0
13:10 10.9 54.0 1034.3 3.2 NNW 4.8 0.0
13:15 10.9 53.0 1034.1 3.2 NNW 6.4 0.0
13:20 11.0 55.0 1033.9 4.8 NNW 8.0 0.0
13:25 11.1 55.0 1033.4 3.2 NW 8.0 0.0
13:30 11.2 54.0 1033.5 3.2 NW 8.0 0.0
13:35 11.3 54.0 1033.4 4.8 NNW 6.4 0.0
13:40 11.4 54.0 1033.5 4.8 SW 6.4 0.0
13:45 11.6 53.0 1033.3 3.2 NW 9.7 0.0
13:50 11.6 53.0 1033.4 6.4 NNW 8.0 0.0
13:55 11.6 53.0 1033.2 3.2 N 8.0 0.0
14:00 11.6 53.0 1033.1 0.0 NNW 6.4 0.0
14:05 11.6 52.0 1033.2 3.2 N 6.4 0.0
14:10 11.6 52.0 1033.1 1.6 NW 6.4 0.0
14:15 11.7 52.0 1033.0 4.8 NNW 6.4 0.0
14:20 11.8 52.0 1033.1 1.6 NW 6.4 0.0
14:25 11.8 51.0 1033.0 4.8 WNW 6.4 0.0
14:30 11.9 52.0 1033.3 3.2 WNW 6.4 0.0
14:35 12.2 52.0 1033.1 1.6 W 4.8 0.0
14:40 12.4 51.0 1033.3 1.6 WSW 6.4 0.0
14:45 12.6 50.0 1033.1 3.2 WNW 8.0 0.0
14:50 12.6 50.0 1033.1 3.2 NW 8.0 0.0
14:55 12.7 51.0 1033.2 3.2 NNW 6.4 0.0
15:00 12.7 51.0 1033.1 1.6 NNW 8.0 0.0
15:05 12.6 53.0 1033.1 0.0 NNW 8.0 0.0
15:10 12.6 52.0 1033.2 1.6 NW 6.4 0.0
15:15 12.6 53.0 1033.2 0.0 WNW 4.8 0.0
15:20 12.6 52.0 1033.3 0.0 NNW 6.4 0.0
15:25 12.6 55.0 1033.2 1.6 NW 6.4 0.0
15:30 12.4 55.0 1033.1 0.0 NW 4.8 0.0
15:35 12.1 57.0 1033.1 3.2 W 3.2 0.0
15:40 11.6 58.0 1033.2 4.8 WSW 8.0 0.0
15:45 11.1 57.0 1033.2 1.6 W 6.4 0.0
15:50 10.9 61.0 1033.2 3.2 SW 8.0 0.0
15:55 10.6 60.0 1033.2 6.4 SW 8.0 0.0
16:00 10.3 61.0 1033.2 4.8 SW 8.0 0.0
16:05 9.8 63.0 1033.1 1.6 WSW 8.0 0.0
16:10 9.2 64.0 1033.1 1.6 WSW 3.2 0.0
16:15 8.6 67.0 1033.2 1.6 SW 4.8 0.0
16:20 7.9 68.0 1033.2 3.2 S 6.4 0.0
16:25 7.3 70.0 1033.1 1.6 N 6.4 0.0
16:30 6.8 72.0 1033.2 4.8 SE 4.8 0.0
16:35 6.2 73.0 1033.2 3.2 N 6.4 0.0
16:40 5.7 74.0 1033.2 3.2 N 6.4 0.0
16:45 5.1 75.0 1033.3 1.6 N 6.4 0.0
16:50 4.7 76.0 1033.4 3.2 N 4.8 0.0
16:55 4.3 77.0 1033.5 3.2 N 4.8 0.0
17:00 4.0 78.0 1033.5 3.2 N 3.2 0.0
Máxima 12.7 97.0 1035.6 6.4 SW 9.7 0.2
Mínima -3.9 50.0 1033.0
Total 0.2